Time,TemperatureF,DewpointF,PressureIn,WindDirection,WindDirectionDegrees,WindSpeedMPH,WindSpeedGustMPH,Humidity,HourlyPrecipIn,Conditions,Clouds,dailyrainin,SoftwareType,DateUTC
2017-06-27 00:01:00,61.9,53.1,30.08,SW,228,0.0,0.0,73,0.00,,,0.00,meteobridge,2017-06-27 04:01:00,
2017-06-27 00:06:00,61.5,52.7,30.08,SW,228,0.0,0.0,73,0.00,,,0.00,meteobridge,2017-06-27 04:06:00,
2017-06-27 00:11:00,61.2,52.9,30.08,SW,228,0.0,0.0,74,0.00,,,0.00,meteobridge,2017-06-27 04:11:00,
2017-06-27 00:16:00,60.8,52.9,30.08,SW,228,0.0,0.0,75,0.00,,,0.00,meteobridge,2017-06-27 04:16:00,
2017-06-27 00:21:00,60.4,52.5,30.08,SW,228,0.0,0.0,75,0.00,,,0.00,meteobridge,2017-06-27 04:21:00,
2017-06-27 00:26:00,60.1,52.5,30.08,SW,228,0.0,0.0,76,0.00,,,0.00,meteobridge,2017-06-27 04:26:00,
2017-06-27 00:31:00,59.7,52.2,30.08,SW,227,0.0,0.0,76,0.00,,,0.00,meteobridge,2017-06-27 04:31:00,
2017-06-27 00:37:00,59.4,51.8,30.09,SW,228,0.0,0.0,76,0.00,,,0.00,meteobridge,2017-06-27 04:37:00,
2017-06-27 00:42:00,59.0,51.8,30.09,SW,227,0.0,0.0,77,0.00,,,0.00,meteobridge,2017-06-27 04:42:00,
2017-06-27 00:47:00,58.6,52.2,30.09,SW,228,0.0,0.0,79,0.00,,,0.00,meteobridge,2017-06-27 04:47:00,
2017-06-27 00:52:00,58.6,52.2,30.09,SW,228,0.0,0.0,79,0.00,,,0.00,meteobridge,2017-06-27 04:52:00,
2017-06-27 00:57:00,58.5,52.0,30.09,SW,228,0.0,0.0,79,0.00,,,0.00,meteobridge,2017-06-27 04:57:00,
2017-06-27 01:02:00,58.3,52.5,30.09,SW,228,0.0,0.0,81,0.00,,,0.00,meteobridge,2017-06-27 05:02:00,
2017-06-27 01:07:00,58.1,52.3,30.09,SW,228,0.0,0.0,81,0.00,,,0.00,meteobridge,2017-06-27 05:07:00,
2017-06-27 01:12:00,57.9,52.2,30.09,SW,228,0.0,0.0,81,0.00,,,0.00,meteobridge,2017-06-27 05:12:00,
2017-06-27 01:17:00,57.7,52.3,30.08,SW,228,0.0,0.0,82,0.00,,,0.00,meteobridge,2017-06-27 05:17:00,
2017-06-27 01:22:00,57.6,52.2,30.08,SW,227,0.0,0.0,82,0.00,,,0.00,meteobridge,2017-06-27 05:22:00,
2017-06-27 01:27:00,57.6,52.2,30.09,SW,228,0.0,0.0,82,0.00,,,0.00,meteobridge,2017-06-27 05:27:00,
2017-06-27 01:32:00,57.4,52.0,30.09,SW,228,0.0,0.0,82,0.00,,,0.00,meteobridge,2017-06-27 05:32:00,
2017-06-27 01:37:00,57.0,52.0,30.09,SW,228,0.0,0.0,83,0.00,,,0.00,meteobridge,2017-06-27 05:37:00,
2017-06-27 01:42:00,56.8,51.8,30.08,SW,228,0.0,0.0,83,0.00,,,0.00,meteobridge,2017-06-27 05:42:00,
2017-06-27 01:47:00,56.7,51.6,30.09,SW,228,0.0,0.0,83,0.00,,,0.00,meteobridge,2017-06-27 05:47:00,
2017-06-27 01:52:00,56.7,51.8,30.09,SW,228,0.0,0.0,84,0.00,,,0.00,meteobridge,2017-06-27 05:52:00,
2017-06-27 01:57:00,56.5,51.6,30.09,SW,228,0.0,0.0,84,0.00,,,0.00,meteobridge,2017-06-27 05:57:00,
2017-06-27 02:02:00,56.5,51.6,30.09,SW,228,0.0,0.0,84,0.00,,,0.00,meteobridge,2017-06-27 06:02:00,
2017-06-27 02:07:00,56.5,52.0,30.09,SW,228,0.0,0.0,85,0.00,,,0.00,meteobridge,2017-06-27 06:07:00,
2017-06-27 02:12:00,56.5,52.0,30.09,SW,227,0.0,0.0,85,0.00,,,0.00,meteobridge,2017-06-27 06:12:00,
2017-06-27 02:17:00,56.5,52.0,30.09,SW,228,0.0,0.0,85,0.00,,,0.00,meteobridge,2017-06-27 06:17:00,
2017-06-27 02:22:00,56.5,52.3,30.09,SW,228,0.0,0.0,86,0.00,,,0.00,meteobridge,2017-06-27 06:22:00,
2017-06-27 02:27:00,56.5,52.3,30.09,SW,228,0.0,0.0,86,0.00,,,0.00,meteobridge,2017-06-27 06:27:00,
2017-06-27 02:32:00,56.5,52.3,30.09,SW,228,0.0,0.0,86,0.00,,,0.00,meteobridge,2017-06-27 06:32:00,
2017-06-27 02:38:00,56.1,52.0,30.09,SW,228,0.0,0.0,86,0.00,,,0.00,meteobridge,2017-06-27 06:38:00,
2017-06-27 02:43:00,55.9,51.8,30.09,SW,228,0.0,0.0,86,0.00,,,0.00,meteobridge,2017-06-27 06:43:00,
2017-06-27 02:48:00,55.9,51.8,30.09,SW,228,0.0,0.0,86,0.00,,,0.00,meteobridge,2017-06-27 06:48:00,
2017-06-27 02:53:00,55.8,51.6,30.09,SW,228,0.0,0.0,86,0.00,,,0.00,meteobridge,2017-06-27 06:53:00,
2017-06-27 02:58:00,55.8,51.6,30.09,SW,228,0.0,0.0,86,0.00,,,0.00,meteobridge,2017-06-27 06:58:00,
2017-06-27 03:03:00,55.6,51.4,30.09,SW,227,0.0,0.0,86,0.00,,,0.00,meteobridge,2017-06-27 07:03:00,
2017-06-27 03:08:00,55.6,51.4,30.09,SW,228,0.0,0.0,86,0.00,,,0.00,meteobridge,2017-06-27 07:08:00,
2017-06-27 03:13:00,55.4,51.3,30.08,SW,228,0.0,0.0,86,0.00,,,0.00,meteobridge,2017-06-27 07:13:00,
2017-06-27 03:18:00,55.2,51.4,30.08,SW,228,0.0,0.0,87,0.00,,,0.00,meteobridge,2017-06-27 07:18:00,
2017-06-27 03:23:00,55.0,51.3,30.08,SW,228,0.0,0.0,87,0.00,,,0.00,meteobridge,2017-06-27 07:23:00,
2017-06-27 03:28:00,54.9,51.4,30.08,SW,227,0.0,0.0,88,0.00,,,0.00,meteobridge,2017-06-27 07:28:00,
2017-06-27 03:33:00,54.9,51.6,30.08,SW,227,0.0,0.0,89,0.00,,,0.00,meteobridge,2017-06-27 07:33:00,
2017-06-27 03:38:00,54.9,51.6,30.08,SW,228,0.0,0.0,89,0.00,,,0.00,meteobridge,2017-06-27 07:38:00,
2017-06-27 03:43:00,55.0,52.2,30.08,SW,228,0.0,0.0,90,0.00,,,0.00,meteobridge,2017-06-27 07:43:00,
2017-06-27 03:48:00,54.9,52.0,30.08,SW,228,0.0,0.0,90,0.00,,,0.00,meteobridge,2017-06-27 07:48:00,
2017-06-27 03:53:00,54.9,52.0,30.08,SW,228,0.0,0.0,90,0.00,,,0.00,meteobridge,2017-06-27 07:53:00,
2017-06-27 03:58:00,54.7,51.8,30.08,SW,228,0.0,0.0,90,0.00,,,0.00,meteobridge,2017-06-27 07:58:00,
2017-06-27 04:03:00,54.5,52.0,30.08,SW,228,0.0,0.0,91,0.00,,,0.00,meteobridge,2017-06-27 08:03:00,
2017-06-27 04:08:00,54.3,51.8,30.09,SW,228,0.0,0.0,91,0.00,,,0.00,meteobridge,2017-06-27 08:08:00,
2017-06-27 04:13:00,54.1,51.6,30.09,SW,228,0.0,0.0,91,0.00,,,0.00,meteobridge,2017-06-27 08:13:00,
2017-06-27 04:18:00,54.1,51.6,30.09,SW,228,0.0,0.0,91,0.00,,,0.00,meteobridge,2017-06-27 08:18:00,
2017-06-27 04:23:00,54.0,51.6,30.09,SW,228,0.0,0.0,92,0.00,,,0.00,meteobridge,2017-06-27 08:23:00,
2017-06-27 04:28:00,54.0,51.6,30.09,SW,227,0.0,0.0,92,0.00,,,0.00,meteobridge,2017-06-27 08:28:00,
2017-06-27 04:31:00,54.0,51.6,30.09,SW,228,0.0,0.0,92,0.00,,,0.00,meteobridge,2017-06-27 08:31:00,
2017-06-27 04:36:00,54.0,51.6,30.09,SW,227,0.0,0.0,92,0.00,,,0.00,meteobridge,2017-06-27 08:36:00,
2017-06-27 04:41:00,54.0,52.0,30.09,SW,227,0.0,0.0,93,0.00,,,0.00,meteobridge,2017-06-27 08:41:00,
2017-06-27 04:46:00,54.0,51.6,30.09,SW,228,0.0,0.0,92,0.00,,,0.00,meteobridge,2017-06-27 08:46:00,
2017-06-27 04:51:00,54.0,51.6,30.09,SW,227,0.0,0.0,92,0.00,,,0.00,meteobridge,2017-06-27 08:51:00,
2017-06-27 04:56:00,54.0,51.6,30.09,SW,227,0.0,0.0,92,0.00,,,0.00,meteobridge,2017-06-27 08:56:00,
2017-06-27 05:01:00,53.8,51.4,30.09,SW,228,0.0,0.0,92,0.00,,,0.00,meteobridge,2017-06-27 09:01:00,
2017-06-27 05:06:00,53.8,51.4,30.10,SW,227,0.0,0.0,92,0.00,,,0.00,meteobridge,2017-06-27 09:06:00,
2017-06-27 05:11:00,53.6,51.3,30.10,SW,228,0.0,0.0,92,0.00,,,0.00,meteobridge,2017-06-27 09:11:00,
2017-06-27 05:16:00,53.4,51.1,30.10,SW,228,0.0,0.0,92,0.00,,,0.00,meteobridge,2017-06-27 09:16:00,
2017-06-27 05:21:00,53.2,50.9,30.10,SW,228,0.0,0.0,92,0.00,,,0.00,meteobridge,2017-06-27 09:21:00,
2017-06-27 05:27:00,53.2,50.9,30.10,SW,228,0.0,0.0,92,0.00,,,0.00,meteobridge,2017-06-27 09:27:00,
2017-06-27 05:32:00,53.1,50.7,30.10,SW,227,0.0,0.0,92,0.00,,,0.00,meteobridge,2017-06-27 09:32:00,
2017-06-27 05:37:00,53.1,51.1,30.10,SW,228,0.0,0.0,93,0.00,,,0.00,meteobridge,2017-06-27 09:37:00,
2017-06-27 05:42:00,53.1,50.7,30.11,SW,227,0.0,0.0,92,0.00,,,0.00,meteobridge,2017-06-27 09:42:00,
2017-06-27 05:47:00,53.1,50.7,30.11,SW,228,0.0,0.0,92,0.00,,,0.00,meteobridge,2017-06-27 09:47:00,
2017-06-27 05:52:00,52.9,50.9,30.11,SW,228,0.0,0.0,93,0.00,,,0.00,meteobridge,2017-06-27 09:52:00,
2017-06-27 05:57:00,53.1,51.4,30.11,SW,228,0.0,0.0,94,0.00,,,0.00,meteobridge,2017-06-27 09:57:00,
2017-06-27 06:02:00,53.2,51.6,30.11,SW,228,0.0,0.0,94,0.00,,,0.00,meteobridge,2017-06-27 10:02:00,
2017-06-27 06:07:00,53.2,51.6,30.11,SW,228,0.0,0.0,94,0.00,,,0.00,meteobridge,2017-06-27 10:07:00,
2017-06-27 06:12:00,53.2,51.6,30.12,SW,228,0.0,0.0,94,0.00,,,0.00,meteobridge,2017-06-27 10:12:00,
2017-06-27 06:17:00,53.1,51.4,30.12,SW,228,0.0,0.0,94,0.00,,,0.00,meteobridge,2017-06-27 10:17:00,
2017-06-27 06:22:00,52.9,50.9,30.12,SW,228,0.0,0.0,93,0.00,,,0.00,meteobridge,2017-06-27 10:22:00,
2017-06-27 06:27:00,52.9,50.9,30.12,SW,228,0.0,0.0,93,0.00,,,0.00,meteobridge,2017-06-27 10:27:00,
2017-06-27 06:32:00,52.5,50.5,30.12,SW,227,0.0,0.0,93,0.00,,,0.00,meteobridge,2017-06-27 10:32:00,
2017-06-27 06:37:00,52.5,50.9,30.12,SW,227,0.0,0.0,94,0.00,,,0.00,meteobridge,2017-06-27 10:37:00,
2017-06-27 06:42:00,52.3,50.7,30.12,SW,228,0.0,0.0,94,0.00,,,0.00,meteobridge,2017-06-27 10:42:00,
2017-06-27 06:47:00,52.3,50.7,30.12,SW,228,0.0,0.0,94,0.00,,,0.00,meteobridge,2017-06-27 10:47:00,
2017-06-27 06:52:00,52.3,50.7,30.13,SW,228,0.0,0.0,94,0.00,,,0.00,meteobridge,2017-06-27 10:52:00,
2017-06-27 06:57:00,52.3,50.7,30.13,SW,227,0.0,0.0,94,0.00,,,0.00,meteobridge,2017-06-27 10:57:00,
2017-06-27 07:03:00,52.3,50.7,30.13,SW,228,0.0,0.0,94,0.00,,,0.00,meteobridge,2017-06-27 11:03:00,
2017-06-27 07:08:00,52.5,51.1,30.13,SW,228,0.0,0.0,95,0.00,,,0.00,meteobridge,2017-06-27 11:08:00,
2017-06-27 07:13:00,52.9,51.8,30.13,SW,228,0.0,0.0,96,0.00,,,0.00,meteobridge,2017-06-27 11:13:00,
2017-06-27 07:18:00,53.1,52.0,30.13,SW,228,0.0,0.0,96,0.00,,,0.00,meteobridge,2017-06-27 11:18:00,
2017-06-27 07:28:00,53.4,52.3,30.14,SW,228,0.0,0.0,96,0.00,,,0.00,meteobridge,2017-06-27 11:28:00,
2017-06-27 07:33:00,53.8,52.7,30.14,SW,227,0.0,0.0,96,0.00,,,0.00,meteobridge,2017-06-27 11:33:00,
2017-06-27 07:38:00,54.0,52.9,30.14,SW,228,0.0,0.0,96,0.00,,,0.00,meteobridge,2017-06-27 11:38:00,
2017-06-27 07:43:00,54.1,53.1,30.14,SW,228,0.0,0.0,96,0.00,,,0.00,meteobridge,2017-06-27 11:43:00,
2017-06-27 07:48:00,54.5,53.4,30.14,SW,228,0.0,0.0,96,0.00,,,0.00,meteobridge,2017-06-27 11:48:00,
2017-06-27 07:53:00,54.7,53.6,30.14,SW,227,0.0,1.0,96,0.00,,,0.00,meteobridge,2017-06-27 11:53:00,
2017-06-27 07:58:00,54.9,53.4,30.14,SW,227,0.0,0.0,95,0.00,,,0.00,meteobridge,2017-06-27 11:58:00,
2017-06-27 08:03:00,55.0,53.4,30.14,SW,227,0.0,0.0,94,0.00,,,0.00,meteobridge,2017-06-27 12:03:00,
2017-06-27 08:08:00,55.4,53.4,30.14,SW,227,0.0,0.0,93,0.00,,,0.00,meteobridge,2017-06-27 12:08:00,
2017-06-27 08:09:00,55.4,53.4,30.14,SW,227,0.0,0.0,93,0.00,,,0.00,meteobridge,2017-06-27 12:09:00,
2017-06-27 08:14:00,55.8,53.8,30.14,SW,227,0.0,0.0,93,0.00,,,0.00,meteobridge,2017-06-27 12:14:00,
2017-06-27 08:19:00,55.9,53.6,30.15,SW,227,0.0,0.0,92,0.00,,,0.00,meteobridge,2017-06-27 12:19:00,
2017-06-27 08:24:00,56.5,54.1,30.15,SW,227,0.0,0.0,92,0.00,,,0.00,meteobridge,2017-06-27 12:24:00,
2017-06-27 08:30:00,56.7,54.3,30.15,SW,227,0.0,0.0,92,0.00,,,0.00,meteobridge,2017-06-27 12:30:00,
2017-06-27 08:35:00,57.0,54.5,30.15,SW,227,0.0,0.0,91,0.00,,,0.00,meteobridge,2017-06-27 12:35:00,
2017-06-27 08:40:00,57.4,54.1,30.15,SW,227,0.0,1.0,89,0.00,,,0.00,meteobridge,2017-06-27 12:40:00,
2017-06-27 08:43:00,57.6,54.3,30.15,SW,227,0.0,0.0,89,0.00,,,0.00,meteobridge,2017-06-27 12:43:00,
2017-06-27 08:48:00,57.9,54.7,30.15,South,183,0.0,0.0,89,0.00,,,0.00,meteobridge,2017-06-27 12:48:00,
2017-06-27 08:53:00,58.5,55.2,30.15,South,183,0.0,0.0,89,0.00,,,0.00,meteobridge,2017-06-27 12:53:00,
2017-06-27 08:58:00,58.8,55.2,30.15,South,184,0.0,0.0,88,0.00,,,0.00,meteobridge,2017-06-27 12:58:00,
2017-06-27 09:03:00,59.4,55.4,30.15,South,184,0.0,0.0,87,0.00,,,0.00,meteobridge,2017-06-27 13:03:00,
2017-06-27 09:08:00,59.5,55.4,30.15,South,183,0.0,0.0,86,0.00,,,0.00,meteobridge,2017-06-27 13:08:00,
2017-06-27 09:13:00,60.3,55.8,30.15,South,184,0.0,0.0,85,0.00,,,0.00,meteobridge,2017-06-27 13:13:00,
2017-06-27 09:18:00,60.6,55.8,30.15,South,191,0.0,1.0,84,0.00,,,0.00,meteobridge,2017-06-27 13:18:00,
2017-06-27 09:23:00,61.2,54.9,30.15,East,94,0.0,0.0,80,0.00,,,0.00,meteobridge,2017-06-27 13:23:00,
2017-06-27 09:28:00,61.9,55.6,30.16,East,94,0.0,0.0,80,0.00,,,0.00,meteobridge,2017-06-27 13:28:00,
2017-06-27 09:33:00,62.8,56.1,30.16,East,101,0.0,1.0,79,0.00,,,0.00,meteobridge,2017-06-27 13:33:00,
2017-06-27 09:38:00,63.3,56.7,30.16,East,101,0.0,1.0,79,0.00,,,0.00,meteobridge,2017-06-27 13:38:00,
2017-06-27 09:43:00,64.4,56.7,30.16,SSE,157,0.0,0.0,76,0.00,,,0.00,meteobridge,2017-06-27 13:43:00,
2017-06-27 09:48:00,64.9,56.1,30.16,SE,138,0.0,0.0,73,0.00,,,0.00,meteobridge,2017-06-27 13:48:00,
2017-06-27 09:53:00,65.7,57.2,30.16,WNW,295,0.0,0.0,74,0.00,,,0.00,meteobridge,2017-06-27 13:53:00,
2017-06-27 09:58:00,66.4,56.7,30.16,East,101,0.0,0.0,71,0.00,,,0.00,meteobridge,2017-06-27 13:58:00,
2017-06-27 10:03:00,66.7,55.8,30.16,SE,131,0.0,1.0,68,0.00,,,0.00,meteobridge,2017-06-27 14:03:00,
2017-06-27 10:08:00,67.3,55.9,30.16,SW,217,0.0,0.0,67,0.00,,,0.00,meteobridge,2017-06-27 14:08:00,
2017-06-27 10:13:00,67.5,56.5,30.16,ESE,118,0.0,1.0,68,0.00,,,0.00,meteobridge,2017-06-27 14:13:00,
2017-06-27 10:18:00,67.6,56.3,30.16,WSW,250,0.0,1.0,67,0.00,,,0.00,meteobridge,2017-06-27 14:18:00,
2017-06-27 10:23:00,67.8,55.2,30.16,South,186,0.0,1.0,64,0.00,,,0.00,meteobridge,2017-06-27 14:23:00,
2017-06-27 10:28:00,68.0,54.5,30.16,SW,224,0.0,1.0,62,0.00,,,0.00,meteobridge,2017-06-27 14:28:00,
2017-06-27 10:33:00,68.4,56.5,30.16,SSW,193,0.0,0.0,66,0.00,,,0.00,meteobridge,2017-06-27 14:33:00,
2017-06-27 10:38:00,68.9,56.3,30.16,SW,223,0.0,1.0,64,0.00,,,0.00,meteobridge,2017-06-27 14:38:00,
2017-06-27 10:43:00,69.1,56.5,30.16,SE,124,0.0,1.0,64,0.00,,,0.00,meteobridge,2017-06-27 14:43:00,
2017-06-27 10:48:00,69.3,55.8,30.16,West,267,0.0,1.0,62,0.00,,,0.00,meteobridge,2017-06-27 14:48:00,
2017-06-27 10:53:00,69.6,55.6,30.16,SSW,192,0.0,0.0,61,0.00,,,0.00,meteobridge,2017-06-27 14:53:00,
2017-06-27 10:54:00,69.6,55.6,30.16,East,96,0.0,0.0,61,0.00,,,0.00,meteobridge,2017-06-27 14:54:00,
2017-06-27 10:59:00,70.3,56.7,30.16,SE,129,0.0,1.0,62,0.00,,,0.00,meteobridge,2017-06-27 14:59:00,
2017-06-27 11:04:00,70.9,54.3,30.15,South,182,0.0,1.0,56,0.00,,,0.00,meteobridge,2017-06-27 15:04:00,
2017-06-27 11:09:00,71.1,55.9,30.16,East,92,0.0,1.0,59,0.00,,,0.00,meteobridge,2017-06-27 15:09:00,
2017-06-27 11:14:00,71.2,55.2,30.15,SSW,197,0.0,1.0,57,0.00,,,0.00,meteobridge,2017-06-27 15:14:00,
2017-06-27 11:19:00,71.6,54.5,30.15,WSW,257,0.0,1.0,55,0.00,,,0.00,meteobridge,2017-06-27 15:19:00,
2017-06-27 11:24:00,71.8,54.7,30.15,SW,235,0.0,1.0,55,0.00,,,0.00,meteobridge,2017-06-27 15:24:00,
2017-06-27 11:29:00,71.8,56.7,30.15,SW,226,0.0,2.0,59,0.00,,,0.00,meteobridge,2017-06-27 15:29:00,
2017-06-27 11:34:00,71.8,54.7,30.15,WSW,252,0.0,1.0,55,0.00,,,0.00,meteobridge,2017-06-27 15:34:00,
2017-06-27 11:40:00,71.8,53.8,30.15,WSW,253,0.0,2.0,53,0.00,,,0.00,meteobridge,2017-06-27 15:40:00,
2017-06-27 11:45:00,71.8,55.8,30.15,West,264,0.0,1.0,57,0.00,,,0.00,meteobridge,2017-06-27 15:45:00,
2017-06-27 11:50:00,72.0,55.4,30.15,WSW,252,0.0,1.0,56,0.00,,,0.00,meteobridge,2017-06-27 15:50:00,
2017-06-27 11:55:00,72.1,55.0,30.15,West,259,0.0,3.0,55,0.00,,,0.00,meteobridge,2017-06-27 15:55:00,
2017-06-27 12:00:00,72.0,56.8,30.15,WSW,248,0.9,2.0,59,0.00,,,0.00,meteobridge,2017-06-27 16:00:00,
2017-06-27 12:05:00,72.0,57.7,30.15,WSW,246,0.0,2.0,61,0.00,,,0.00,meteobridge,2017-06-27 16:05:00,
2017-06-27 12:10:00,72.9,56.3,30.14,WSW,245,0.0,0.0,56,0.00,,,0.00,meteobridge,2017-06-27 16:10:00,
2017-06-27 12:15:00,73.8,58.1,30.15,WSW,249,0.9,2.0,58,0.00,,,0.00,meteobridge,2017-06-27 16:15:00,